Volver al catálogo

YAOGAN 22

ActivoMilitarSSO
NORAD 40275·PAYLOAD·🇨🇳 China

Lanzado Oct 20, 2014 desde Taiyuan Satellite Launch Center

Loading…

Próximos Pases (próximas 24 horas)

TLE

ActualizadoSource: Space-Track

Época: Sep 14, 2026, 09:26 UTC

1 40275U 14063A   26257.39344761 -.00000027  00000-0  53759-4 0  9994
2 40275 100.7863  50.2039 0006207 354.9353   5.1694 13.15533188571546

Sigue YAOGAN 22 en tiempo real con AllMySat

Download on the App Store